Location: *
(46.1833°N, 22.7667°E)
Time: 01:56:54
(UTC+00:00)

Cosmos 405 Rocket - Visible Passes

Search period start: 09 December 2019 00:00
Search period end: 19 December 2019 00:00
Orbit: 489 x 556 km, 81.3° (Epoch: 08 December)

Date Brightness Start Highest point End Pass type
(mag) Time Alt. Az. Time Alt. Az. Time Alt. Az.
14 Dec 4.7 17:01:35 10° NNW 17:09:23 - S 17:02:41 19° NNW visible
15 Dec 5.1 05:20:17 10° SSE 05:23:30 27° E 05:26:42 10° NE visible
15 Dec 2.5 16:48:39 10° NNW 16:52:22 84° W 16:56:07 10° S visible
16 Dec 5.3 05:07:32 10° SE 05:10:37 24° E 05:13:40 10° NE visible
16 Dec 2.5 16:35:44 10° N 16:39:27 86° ENE 16:43:12 10° S visible
17 Dec 5.4 04:54:49 10° SE 04:57:44 21° E 05:00:36 10° NE visible
17 Dec 2.5 16:22:48 10° N 16:26:32 76° E 16:30:17 10° SSE visible
18 Dec 5.6 04:42:08 10° SE 04:44:50 19° E 04:47:32 10° NE visible
18 Dec 2.5 16:09:53 10° N 16:13:36 66° ENE 16:17:20 10° SSE visible
